GW4549 Weather Reports


time (UTC)temp
C
wind
direction
speed
KPH
gust
KPH
rain 1hr
cm
rain 24hr
cm
rain mn
cm
humidity
%
barometer
mb
20260504000012 13 292 0.0 3.2 0.00 0.00 0.00 48 1016.3
20260503235503 13 292 0.0 3.2 0.00 0.00 0.00 48 1016.2
20260503235003 13 292 0.0 0.0 0.00 0.00 0.00 44 1016.2
20260503234516 14 292 0.0 3.2 0.00 0.00 0.00 44 1016.2
20260503234007 15 292 0.0 3.2 0.00 0.00 0.00 38 1016.1
20260503233504 15 292 0.0 3.2 0.00 0.00 0.00 38 1016.1
20260503233008 15 292 0.0 4.8 0.00 0.00 0.00 39 1016.1
20260503232507 15 288 3.2 4.8 0.00 0.00 0.00 35 1016.1
20260503232007 15 293 0.0 6.4 0.00 0.00 0.00 35 1016.1
20260503231516 15 271 0.0 6.4 0.00 0.00 0.00 33 1016.0
20260503231006 15 251 3.2 6.4 0.00 0.00 0.00 34 1016.0
20260503230503 16 300 1.6 8.0 0.00 0.00 0.00 33 1016.0
20260503230008 16 306 3.2 8.0 0.00 0.00 0.00 33 1016.0
20260503225510 16 311 1.6 11.3 0.00 0.00 0.00 33 1016.0
20260503225009 16 286 0.0 11.3 0.00 0.00 0.00 32 1016.0
20260503224516 16 234 3.2 9.7 0.00 0.00 0.00 33 1016.1
20260503224003 16 290 3.2 9.7 0.00 0.00 0.00 32 1016.1
20260503223502 16 5 3.2 8.0 0.00 0.00 0.00 31 1016.1
20260503223004 16 278 3.2 8.0 0.00 0.00 0.00 32 1016.1
20260503222503 16 337 4.8 11.3 0.00 0.00 0.00 32 1016.1
20260503222003 16 326 3.2 11.3 0.00 0.00 0.00 31 1016.1
20260503221516 16 329 3.2 11.3 0.00 0.00 0.00 31 1016.1
20260503221006 16 265 4.8 11.3 0.00 0.00 0.00 30 1016.1
20260503220505 16 307 6.4 11.3 0.00 0.00 0.00 30 1016.1
20260503220005 16 288 3.2 11.3 0.00 0.00 0.00 31 1016.0
20260503215502 16 338 3.2 14.5 0.00 0.00 0.00 31 1016.0
20260503215002 16 296 6.4 16.1 0.00 0.00 0.00 30 1016.0
20260503214505 17 293 4.8 16.1 0.00 0.00 0.00 30 1016.0
20260503214004 17 313 4.8 8.0 0.00 0.00 0.00 30 1016.0
20260503213507 17 254 1.6 11.3 0.00 0.00 0.00 29 1016.0
20260503213014 17 232 4.8 11.3 0.00 0.00 0.00 28 1016.0
20260503212508 17 223 4.8 17.7 0.00 0.00 0.00 29 1016.0
20260503212004 17 288 8.0 17.7 0.00 0.00 0.00 29 1016.0
20260503211502 17 302 8.0 16.1 0.00 0.00 0.00 29 1016.0
20260503211006 17 275 4.8 14.5 0.00 0.00 0.00 28 1016.0
20260503210507 17 297 3.2 12.9 0.00 0.00 0.00 29 1016.0
20260503210010 17 297 6.4 19.3 0.00 0.00 0.00 29 1016.0
20260503205507 17 283 8.0 19.3 0.00 0.00 0.00 27 1016.0
20260503205007 17 313 4.8 11.3 0.00 0.00 0.00 28 1015.9
20260503204519 17 341 6.4 12.9 0.00 0.00 0.00 29 1015.8
20260503204001 17 275 6.4 16.1 0.00 0.00 0.00 27 1015.8
20260503203501 18 290 8.0 16.1 0.00 0.00 0.00 29 1015.9
20260503203006 17 330 3.2 17.7 0.00 0.00 0.00 27 1016.0
20260503202506 17 291 9.7 17.7 0.00 0.00 0.00 28 1016.0
20260503202006 17 311 8.0 19.3 0.00 0.00 0.00 27 1016.0
20260503201516 18 360 12.9 19.3 0.00 0.00 0.00 27 1016.1
20260503201006 17 280 6.4 16.1 0.00 0.00 0.00 27 1016.1
20260503200507 17 300 4.8 19.3 0.00 0.00 0.00 28 1016.1
20260503200006 17 301 8.0 19.3 0.00 0.00 0.00 30 1016.2
20260503195501 17 282 6.4 19.3 0.00 0.00 0.00 28 1016.2
20260503195004 17 328 11.3 19.3 0.00 0.00 0.00 29 1016.3
20260503194510 17 321 9.7 19.3 0.00 0.00 0.00 28 1016.3
20260503194008 18 304 9.7 17.7 0.00 0.00 0.00 27 1016.5
20260503193506 18 315 8.0 24.1 0.00 0.00 0.00 28 1016.5
20260503193020 17 313 6.4 24.1 0.00 0.00 0.00 29 1016.5
20260503192506 17 290 4.8 19.3 0.00 0.00 0.00 29 1016.6
20260503192003 17 311 12.9 20.9 0.00 0.00 0.00 29 1016.7
20260503191525 18 352 6.4 27.4 0.00 0.00 0.00 29 1016.7
20260503191003 18 275 6.4 27.4 0.00 0.00 0.00 28 1017.0
20260503190506 18 304 6.4 27.4 0.00 0.00 0.00 30 1017.0
20260503190015 17 340 6.4 27.4 0.00 0.00 0.00 29 1016.9
20260503185507 17 332 8.0 25.7 0.00 0.00 0.00 32 1017.0
20260503185007 17 273 9.7 20.9 0.00 0.00 0.00 30 1017.2
20260503184520 17 290 8.0 20.9 0.00 0.00 0.00 31 1017.2
20260503184010 16 302 6.4 17.7 0.00 0.00 0.00 31 1017.2
20260503183503 17 341 6.4 16.1 0.00 0.00 0.00 31 1017.1
20260503183009 17 240 6.4 16.1 0.00 0.00 0.00 32 1017.2
20260503182505 18 312 4.8 19.3 0.00 0.00 0.00 34 1017.2
20260503182007 17 300 6.4 19.3 0.00 0.00 0.00 31 1017.2
20260503181517 17 253 8.0 19.3 0.00 0.00 0.00 32 1017.2
20260503181011 17 279 6.4 19.3 0.00 0.00 0.00 32 1017.3
20260503180512 17 296 4.8 14.5 0.00 0.00 0.00 33 1017.2
20260503180031 17 279 8.0 19.3 0.00 0.00 0.00 33 1017.3
20260503175503 16 305 6.4 25.7 0.00 0.00 0.00 35 1017.3
20260503175005 16 337 17.7 25.7 0.00 0.00 0.00 33 1017.3
20260503174514 16 300 8.0 24.1 0.00 0.00 0.00 35 1017.4
20260503174009 16 319 9.7 24.1 0.00 0.00 0.00 35 1017.6
20260503173512 16 294 9.7 20.9 0.00 0.00 0.00 33 1017.5
20260503173023 16 306 8.0 24.1 0.00 0.00 0.00 36 1017.5
20260503172510 15 300 9.7 24.1 0.00 0.00 0.00 35 1017.5
20260503172010 15 294 12.9 24.1 0.00 0.00 0.00 36 1017.6
20260503171518 15 12 12.9 24.1 0.00 0.00 0.00 35 1017.5
20260503171005 15 313 11.3 20.9 0.00 0.00 0.00 35 1017.6
20260503170507 15 74 6.4 22.5 0.00 0.00 0.00 36 1017.7
20260503151006 13 327 9.7 27.4 0.00 0.03 0.00 41 1018.0
20260503150506 13 283 11.3 25.7 0.00 0.03 0.00 40 1018.0
20260503131007 11 316 6.4 20.9 0.00 0.03 0.00 48 1017.5
20260503130507 11 277 11.3 20.9 0.00 0.03 0.00 46 1017.6
20260503110507 10 282 8.0 22.5 0.00 0.03 0.00 48 1016.3
20260503090507 11 333 3.2 12.9 0.00 0.03 0.00 56 1014.1
20260503081527 11 315 6.4 17.7 0.00 0.03 0.00 61 1013.7
20260503081004 11 316 3.2 12.9 0.00 0.03 0.00 62 1013.5
20260503080506 11 346 4.8 12.9 0.00 0.03 0.00 61 1013.4
20260503072506 11 338 1.6 12.9 0.00 0.03 0.00 61 1013.0
20260503072010 11 311 4.8 12.9 0.00 0.03 0.00 62 1013.0
20260503071524 11 307 4.8 8.0 0.00 0.03 0.00 62 1012.9
20260503071009 10 340 3.2 8.0 0.00 0.03 0.00 64 1012.8
20260503070507 10 299 1.6 3.2 0.00 0.03 0.00 64 1012.8
20260503055009 10 294 0.0 3.2 0.00 0.03 0.00 68 1012.2
20260503054536 10 304 1.6 3.2 0.00 0.03 0.00 67 1012.4
20260503054010 10 298 1.6 3.2 0.00 0.03 0.00 66 1012.4
20260503053508 10 296 1.6 3.2 0.00 0.03 0.00 67 1012.4
20260503053031 10 299 1.6 3.2 0.00 0.03 0.00 66 1012.6
20260503052509 10 302 0.0 3.2 0.00 0.03 0.00 65 1012.5
20260503052011 10 301 0.0 3.2 0.00 0.03 0.00 64 1012.7
20260503051525 11 352 0.0 4.8 0.00 0.03 0.00 63 1012.7
20260503051008 11 304 1.6 4.8 0.00 0.03 0.00 62 1012.7
20260503050512 11 298 1.6 3.2 0.00 0.03 0.00 62 1012.5
20260503050029 11 294 1.6 4.8 0.00 0.03 0.00 62 1012.6
20260503045510 11 304 1.6 4.8 0.00 0.03 0.00 60 1012.6
20260503045011 11 327 1.6 4.8 0.00 0.03 0.00 60 1012.6
20260503044522 11 320 1.6 4.8 0.00 0.03 0.00 61 1012.7
20260503044010 12 325 1.6 4.8 0.00 0.03 0.00 60 1012.7
20260503043509 12 325 0.0 4.8 0.00 0.03 0.00 60 1012.7
20260503043039 12 300 1.6 4.8 0.00 0.03 0.00 60 1012.8
20260503042515 12 319 1.6 4.8 0.00 0.03 0.00 60 1012.7
20260503042012 12 323 1.6 4.8 0.00 0.03 0.00 60 1012.8
20260503041530 12 328 0.0 4.8 0.00 0.03 0.00 61 1012.8
20260503041011 12 320 1.6 6.4 0.00 0.03 0.00 61 1012.8
20260503040504 12 319 1.6 6.4 0.00 0.03 0.00 61 1012.7
20260503040023 12 327 1.6 8.0 0.00 0.03 0.00 60 1012.8
20260503035508 12 316 3.2 8.0 0.00 0.03 0.03 60 1012.8
20260503035010 12 300 1.6 4.8 0.00 0.03 0.03 61 1012.8
20260503034526 12 324 1.6 3.2 0.00 0.03 0.03 61 1012.8
20260503034005 12 296 1.6 3.2 0.00 0.03 0.03 61 1012.8
20260503033506 12 298 1.6 3.2 0.00 0.03 0.03 1012.8
20260503033020 12 309 0.0 3.2 0.00 0.03 0.03 60 1012.6
20260503032508 12 322 0.0 3.2 0.00 0.03 0.03 60 1012.5
20260503032009 12 5 1.6 6.4 0.00 0.03 0.03 60 1012.5
20260503031526 12 330 3.2 6.4 0.00 0.03 0.03 60 1012.5
20260503031010 12 307 0.0 6.4 0.00 0.03 0.03 61 1012.5
20260503030510 12 315 1.6 6.4 0.00 0.03 0.03 60 1012.5
20260503030028 12 333 1.6 4.8 0.00 0.03 0.03 60 1012.6
20260503025507 12 317 0.0 4.8 0.00 0.03 0.03 60 1012.6
20260503025008 12 309 1.6 4.8 0.00 0.03 0.03 59 1012.8
20260503024526 12 298 0.0 6.4 0.00 0.03 0.03 59 1012.9
20260503024009 12 296 1.6 6.4 0.00 0.03 0.03 59 1012.8
20260503023512 12 315 1.6 4.8 0.00 0.03 0.03 59 1012.8
20260503023027 12 313 1.6 3.2 0.00 0.03 0.03 58 1012.8
20260503022507 12 306 1.6 6.4 0.00 0.03 0.03 58 1012.7
20260503022011 12 327 1.6 6.4 0.00 0.03 0.03 57 1012.7
20260503021535 12 333 3.2 6.4 0.00 0.03 0.03 57 1012.8
20260503021006 12 317 3.2 6.4 0.00 0.03 0.03 57 1012.6
20260503020508 12 323 1.6 6.4 0.00 0.03 0.03 58 1012.7
20260503020024 12 334 1.6 6.4 0.00 0.03 0.03 58 1012.6
20260503015516 12 352 0.0 4.8 0.00 0.03 0.03 58 1012.7
20260503015013 12 5 1.6 4.8 0.00 0.03 0.03 57 1012.6
20260503014525 12 319 3.2 6.4 0.00 0.03 0.03 56 1012.7
20260503014011 12 322 3.2 6.4 0.00 0.03 0.03 56 1012.5
20260503013507 12 342 3.2 6.4 0.00 0.03 0.03 55 1012.6
20260503013018 12 319 3.2 6.4 0.00 0.03 0.03 55 1012.4
20260503012509 12 307 1.6 6.4 0.00 0.03 0.03 54 1012.3
20260503012010 13 305 1.6 12.9 0.00 0.03 0.03 55 1012.2
20260503011528 12 31 3.2 12.9 0.00 0.03 0.03 53 1012.1
20260503011010 12 25 1.6 9.7 0.00 0.03 0.03 53 1012.1
20260503010511 13 319 4.8 9.7 0.00 0.03 0.03 52 1012.2
20260503010029 13 338 1.6 6.4 0.00 0.03 0.03 1012.4
20260503005508 13 350 1.6 11.3 0.00 0.03 0.03 1012.4
20260503005013 13 323 4.8 11.3 0.00 0.03 0.03 53 1012.2
20260503004558 13 335 0.0 8.0 0.00 0.03 0.03 53 1012.2
20260503004009 13 35 3.2 9.7 0.00 0.03 0.03 51 1012.1
20260503003509 13 57 1.6 9.7 0.00 0.03 0.03 51 1012.0
20260503003039 13 331 3.2 9.7 0.00 0.03 0.03 51 1012.0
20260503002508 12 331 4.8 9.7 0.00 0.03 0.03 53 1011.9
20260503002010 12 305 3.2 8.0 0.00 0.03 0.03 53 1011.9
20260503001516 12 352 3.2 11.3 0.00 0.03 0.03 53 1011.8
20260503001006 12 317 3.2 14.5 0.00 0.03 0.03 53 1011.8
20260503000509 13 15 4.8 14.5 0.00 0.03 0.03 53 1011.6